StationID,Date,MaxTemp,MinTemp,Precipitation,Snowfall,SnowDepth
"USC00502835","1965-07-01",64.94,39.92,0.00,0.00,0.00
"USC00502835","1965-07-02",62.96,42.08,0.00,0.00,0.00
"USC00502835","1965-07-03",,,0.00,0.00,0.00
"USC00502835","1965-07-04",,,0.00,0.00,0.00
"USC00502835","1965-07-05",,,0.00,0.00,0.00
"USC00502835","1965-07-06",66.02,48.02,0.00,0.00,0.00
"USC00502835","1965-07-07",80.06,44.96,0.00,0.00,0.00
"USC00502835","1965-07-08",75.92,39.92,0.00,0.00,0.00
"USC00502835","1965-07-09",64.94,32.00,0.00,0.00,0.00
"USC00502835","1965-07-10",75.02,44.96,0.00,0.00,0.00
"USC00502835","1965-07-11",73.04,30.02,0.00,0.00,0.00
"USC00502835","1965-07-12",64.04,50.00,0.00,0.00,0.00
"USC00502835","1965-07-13",69.98,44.96,0.00,0.00,0.00
"USC00502835","1965-07-14",64.04,46.04,0.00,0.00,0.00
"USC00502835","1965-07-15",55.94,42.98,0.00,0.00,0.00
"USC00502835","1965-07-16",64.04,35.06,0.00,0.00,0.00
"USC00502835","1965-07-17",,,0.00,0.00,0.00
"USC00502835","1965-07-18",,,0.00,0.00,0.00
"USC00502835","1965-07-19",62.06,37.94,0.00,0.00,0.00
"USC00502835","1965-07-20",57.92,46.94,0.00,0.00,0.00
"USC00502835","1965-07-21",55.04,41.00,20.00,0.00,0.00
"USC00502835","1965-07-22",60.98,41.00,0.00,0.00,0.00
"USC00502835","1965-07-23",51.98,41.00,119.00,0.00,0.00
"USC00502835","1965-07-24",71.06,44.96,0.00,0.00,0.00
"USC00502835","1965-07-25",,,0.00,0.00,0.00
"USC00502835","1965-07-26",71.96,48.02,0.00,0.00,0.00
"USC00502835","1965-07-27",75.02,37.94,0.00,0.00,0.00
"USC00502835","1965-07-28",71.06,37.94,0.00,0.00,0.00
"USC00502835","1965-07-29",73.94,37.94,0.00,0.00,0.00
"USC00502835","1965-07-30",78.08,39.92,0.00,0.00,0.00
"USC00502835","1965-07-31",68.00,44.96,13.00,0.00,0.00
"USC00502835","1965-08-01",69.98,39.02,0.00,0.00,0.00
"USC00502835","1965-08-02",62.96,39.92,0.00,0.00,0.00
"USC00502835","1965-08-03",62.06,44.96,0.00,0.00,0.00
"USC00502835","1965-08-04",71.96,32.00,0.00,0.00,0.00
"USC00502835","1965-08-05",71.06,35.06,0.00,0.00,0.00
"USC00502835","1965-08-06",73.94,35.96,0.00,0.00,0.00
"USC00502835","1965-08-07",62.06,37.94,84.00,0.00,0.00
"USC00502835","1965-08-08",,,,0.00,0.00
"USC00502835","1965-08-09",,,,0.00,0.00
"USC00502835","1965-08-10",,,,0.00,0.00
"USC00502835","1965-08-11",64.94,33.98,,0.00,0.00
"USC00502835","1965-08-12",62.06,35.96,0.00,0.00,0.00
"USC00502835","1965-08-13",57.02,44.06,0.00,0.00,0.00
"USC00502835","1965-08-14",55.04,42.08,0.00,0.00,0.00
"USC00502835","1965-08-15",,,,0.00,0.00
"USC00502835","1965-08-16",,,,0.00,0.00
"USC00502835","1965-08-17",,,,0.00,0.00
"USC00502835","1965-08-18",,,,0.00,0.00
"USC00502835","1965-08-19",,,,0.00,0.00
"USC00502835","1965-08-20",,,,0.00,0.00
"USC00502835","1965-08-21",,,,0.00,0.00
"USC00502835","1965-08-22",,,,0.00,0.00
"USC00502835","1965-08-23",,,,0.00,0.00
"USC00502835","1965-08-24",,,,0.00,0.00
"USC00502835","1965-08-25",,,,0.00,0.00
"USC00502835","1965-08-26",,,,0.00,0.00
"USC00502835","1965-08-27",,,,0.00,0.00
"USC00502835","1965-08-28",,,,0.00,0.00
"USC00502835","1965-08-29",,,,0.00,0.00
"USC00502835","1965-08-30",,,,0.00,0.00
"USC00502835","1965-08-31",,,,0.00,0.00
"USC00502835","1967-09-01",60.08,35.06,0.00,0.00,0.00
"USC00502835","1967-09-02",62.06,37.04,0.00,0.00,0.00
"USC00502835","1967-09-03",64.94,33.98,0.00,0.00,0.00
"USC00502835","1967-09-04",71.96,37.94,0.00,0.00,0.00
"USC00502835","1967-09-05",57.92,33.98,0.00,0.00,0.00
"USC00502835","1967-09-06",55.04,35.96,254.00,0.00,0.00
"USC00502835","1967-09-07",48.92,37.94,203.00,0.00,0.00
"USC00502835","1967-09-08",53.96,37.04,0.00,0.00,0.00
"USC00502835","1967-09-09",,,0.00,0.00,0.00
"USC00502835","1967-09-10",,,0.00,0.00,0.00
"USC00502835","1967-09-11",60.08,33.98,0.00,0.00,0.00
"USC00502835","1967-09-12",62.06,28.04,0.00,0.00,0.00
"USC00502835","1967-09-13",55.94,21.02,20.00,0.00,0.00
"USC00502835","1967-09-14",51.98,33.98,10.00,0.00,0.00
"USC00502835","1967-09-15",51.98,35.06,0.00,0.00,0.00
"USC00502835","1967-09-16",53.96,37.04,0.00,0.00,0.00
"USC00502835","1967-09-17",,,0.00,0.00,0.00
"USC00502835","1967-09-18",51.98,35.96,0.00,0.00,0.00
"USC00502835","1967-09-19",60.98,28.04,0.00,0.00,0.00
"USC00502835","1967-09-20",62.06,23.00,0.00,0.00,0.00
"USC00502835","1967-09-21",60.08,24.98,0.00,0.00,0.00
"USC00502835","1967-09-22",64.94,21.02,0.00,0.00,0.00
"USC00502835","1967-09-23",,,0.00,0.00,0.00
"USC00502835","1967-09-24",,,0.00,0.00,0.00
"USC00502835","1967-09-25",55.04,19.94,0.00,0.00,0.00
"USC00502835","1967-09-26",64.94,21.02,0.00,0.00,0.00
"USC00502835","1967-09-27",60.08,23.00,0.00,0.00,0.00
"USC00502835","1967-09-28",57.92,21.02,0.00,0.00,0.00
"USC00502835","1967-09-29",55.04,17.96,0.00,0.00,0.00
"USC00502835","1967-09-30",,,0.00,0.00,0.00
"USC00502835","1967-10-01",,,0.00,0.00,0.00
"USC00502835","1967-10-02",55.04,17.96,0.00,0.00,0.00
"USC00502835","1967-10-03",53.96,17.06,0.00,0.00,0.00
"USC00502835","1967-10-04",41.00,26.06,0.00,0.00,0.00
"USC00502835","1967-10-05",37.04,8.06,0.00,0.00,0.00
"USC00502835","1967-10-06",41.00,8.06,0.00,0.00,0.00
"USC00502835","1967-10-07",,,0.00,0.00,0.00
"USC00502835","1967-10-08",,,0.00,0.00,0.00
"USC00502835","1967-10-09",48.02,15.08,0.00,0.00,0.00
"USC00502835","1967-10-10",44.06,17.96,0.00,0.00,0.00
"USC00502835","1967-10-11",42.98,17.06,0.00,0.00,0.00
"USC00502835","1967-10-12",42.98,24.08,0.00,0.00,0.00
"USC00502835","1967-10-13",46.04,32.00,0.00,0.00,0.00
"USC00502835","1967-10-14",,,0.00,0.00,0.00
"USC00502835","1967-10-15",,,0.00,0.00,0.00
"USC00502835","1967-10-16",24.98,15.08,0.00,0.00,0.00
"USC00502835","1967-10-17",41.00,12.02,0.00,0.00,0.00
"USC00502835","1967-10-18",39.92,24.08,0.00,0.00,0.00
"USC00502835","1967-10-19",42.08,24.08,0.00,0.00,0.00
"USC00502835","1967-10-20",35.06,15.08,0.00,0.00,0.00
"USC00502835","1967-10-21",35.96,15.08,254.00,102.00,102.00
"USC00502835","1967-10-22",,,0.00,0.00,
"USC00502835","1967-10-23",33.08,8.06,0.00,0.00,
"USC00502835","1967-10-24",28.94,17.96,0.00,0.00,
"USC00502835","1967-10-25",21.92,15.08,0.00,0.00,
"USC00502835","1967-10-26",24.08,14.00,0.00,0.00,
"USC00502835","1967-10-27",30.02,8.06,0.00,0.00,
"USC00502835","1967-10-28",24.98,10.04,0.00,0.00,
"USC00502835","1967-10-29",21.92,8.06,0.00,0.00,
"USC00502835","1967-10-30",28.04,3.92,0.00,0.00,
"USC00502835","1967-10-31",30.02,3.92,0.00,0.00,
"USC00502835","1967-11-01",39.02,24.98,0.00,0.00,203.00
"USC00502835","1967-11-02",37.94,30.02,0.00,0.00,203.00
"USC00502835","1967-11-03",39.92,30.02,0.00,51.00,254.00
"USC00502835","1967-11-04",,,0.00,0.00,254.00
"USC00502835","1967-11-05",,,0.00,0.00,254.00
"USC00502835","1967-11-06",19.94,8.06,0.00,0.00,254.00
"USC00502835","1967-11-07",30.02,19.94,,127.00,381.00
"USC00502835","1967-11-08",39.92,28.04,46.00,0.00,381.00
"USC00502835","1967-11-09",42.08,39.92,25.00,0.00,381.00
"USC00502835","1967-11-10",39.92,28.04,0.00,0.00,381.00
"USC00502835","1967-11-11",,,0.00,0.00,381.00
"USC00502835","1967-11-12",,,0.00,0.00,381.00
"USC00502835","1967-11-13",37.04,24.08,0.00,0.00,381.00
"USC00502835","1967-11-14",39.92,21.92,0.00,0.00,381.00
"USC00502835","1967-11-15",35.96,26.96,0.00,0.00,381.00
"USC00502835","1967-11-16",39.92,28.04,0.00,0.00,381.00
"USC00502835","1967-11-17",39.92,32.00,,76.00,457.00
"USC00502835","1967-11-18",42.08,30.02,38.00,0.00,457.00
"USC00502835","1967-11-19",39.92,21.92,0.00,0.00,457.00
"USC00502835","1967-11-20",41.00,24.08,,76.00,533.00
"USC00502835","1967-11-21",44.06,37.94,,76.00,610.00
"USC00502835","1967-11-22",39.92,-0.04,0.00,0.00,610.00
"USC00502835","1967-11-23",15.08,-22.00,0.00,0.00,610.00
"USC00502835","1967-11-24",5.00,-14.98,0.00,0.00,610.00
"USC00502835","1967-11-25",19.94,-9.94,0.00,0.00,610.00
"USC00502835","1967-11-26",12.02,-9.94,0.00,0.00,610.00
"USC00502835","1967-11-27",-4.00,-7.96,0.00,0.00,610.00
"USC00502835","1967-11-28",10.04,-4.00,0.00,0.00,610.00
"USC00502835","1967-11-29",12.02,-9.94,0.00,0.00,610.00
"USC00502835","1967-11-30",10.94,-9.94,0.00,0.00,610.00
"USC00502835","1967-12-01",15.08,-22.00,0.00,0.00,610.00
"USC00502835","1967-12-02",-11.92,-22.00,0.00,0.00,610.00
"USC00502835","1967-12-03",-14.98,-20.02,0.00,0.00,610.00
"USC00502835","1967-12-04",-0.04,-20.02,0.00,0.00,610.00
"USC00502835","1967-12-05",-9.94,-20.02,0.00,0.00,610.00
"USC00502835","1967-12-06",-5.08,-20.02,0.00,0.00,610.00
"USC00502835","1967-12-07",1.94,-5.08,0.00,0.00,610.00
"USC00502835","1967-12-08",19.94,-2.02,0.00,0.00,610.00
"USC00502835","1967-12-09",,,0.00,0.00,610.00
"USC00502835","1967-12-10",,,0.00,0.00,610.00
"USC00502835","1967-12-11",5.00,-9.94,0.00,0.00,610.00
"USC00502835","1967-12-12",39.92,-0.04,0.00,0.00,610.00
"USC00502835","1967-12-13",42.08,37.94,0.00,0.00,610.00
"USC00502835","1967-12-14",41.00,32.00,46.00,102.00,711.00
"USC00502835","1967-12-15",41.00,24.08,10.00,51.00,635.00
"USC00502835","1967-12-16",24.08,-9.94,0.00,0.00,635.00
"USC00502835","1967-12-17",-5.08,-18.04,0.00,0.00,635.00
"USC00502835","1967-12-18",-0.04,-14.98,0.00,0.00,635.00
"USC00502835","1967-12-19",5.00,-2.02,0.00,0.00,635.00
"USC00502835","1967-12-20",5.00,-2.02,0.00,0.00,635.00
"USC00502835","1967-12-21",-0.94,-20.02,0.00,0.00,635.00
"USC00502835","1967-12-22",-14.98,-25.96,0.00,0.00,635.00
"USC00502835","1967-12-23",-20.02,-27.94,0.00,0.00,635.00
"USC00502835","1967-12-24",-5.08,-20.02,0.00,0.00,635.00
"USC00502835","1967-12-25",-5.08,-18.04,0.00,0.00,635.00
"USC00502835","1967-12-26",10.04,-11.92,0.00,0.00,635.00
"USC00502835","1967-12-27",15.08,-5.08,0.00,0.00,635.00
"USC00502835","1967-12-28",15.08,-0.04,0.00,0.00,635.00
"USC00502835","1967-12-29",39.92,10.04,46.00,0.00,254.00
"USC00502835","1967-12-30",37.94,24.98,25.00,0.00,254.00
"USC00502835","1967-12-31",24.98,-0.04,0.00,0.00,254.00
"USC00502835","1968-01-01",,,0.00,0.00,
"USC00502835","1968-01-02",39.92,19.94,25.00,76.00,254.00
"USC00502835","1968-01-03",30.02,15.08,0.00,0.00,254.00
"USC00502835","1968-01-04",19.94,10.04,0.00,0.00,254.00
"USC00502835","1968-01-05",19.94,10.04,0.00,0.00,254.00
"USC00502835","1968-01-06",,,0.00,0.00,
"USC00502835","1968-01-07",,,0.00,0.00,
"USC00502835","1968-01-08",17.96,5.00,0.00,0.00,254.00
"USC00502835","1968-01-09",15.98,-9.94,0.00,0.00,254.00
"USC00502835","1968-01-10",-0.04,-9.94,0.00,0.00,254.00
"USC00502835","1968-01-11",-5.08,-20.02,0.00,0.00,254.00
"USC00502835","1968-01-12",-14.98,-32.08,0.00,0.00,254.00
"USC00502835","1968-01-13",30.02,-34.96,0.00,0.00,254.00
"USC00502835","1968-01-14",-32.08,-41.08,0.00,0.00,254.00
"USC00502835","1968-01-15",-34.96,-41.98,0.00,0.00,279.00
"USC00502835","1968-01-16",-9.94,-34.96,0.00,0.00,279.00
"USC00502835","1968-01-17",-9.94,-25.06,0.00,0.00,279.00
"USC00502835","1968-01-18",-22.00,-32.08,0.00,0.00,279.00
"USC00502835","1968-01-19",-18.04,-25.06,0.00,0.00,279.00
"USC00502835","1968-01-20",,,0.00,0.00,279.00
"USC00502835","1968-01-21",,,0.00,0.00,
"USC00502835","1968-01-22",30.02,-25.06,28.00,102.00,330.00
"USC00502835","1968-01-23",15.08,-14.98,0.00,0.00,330.00
"USC00502835","1968-01-24",10.04,-14.98,0.00,0.00,330.00
"USC00502835","1968-01-25",10.04,-14.98,0.00,0.00,330.00
"USC00502835","1968-01-26",10.04,-9.94,0.00,0.00,330.00
"USC00502835","1968-01-27",,,0.00,0.00,
"USC00502835","1968-01-28",,,0.00,0.00,
"USC00502835","1968-01-29",19.94,1.94,0.00,0.00,330.00
"USC00502835","1968-01-30",19.94,-2.02,0.00,0.00,330.00
"USC00502835","1968-01-31",-0.04,-20.02,0.00,0.00,
"USC00502835","1968-02-01",-14.98,-40.00,0.00,0.00,330.00
"USC00502835","1968-02-02",-9.94,-43.96,0.00,0.00,330.00
"USC00502835","1968-02-03",-9.94,-29.92,0.00,0.00,330.00
"USC00502835","1968-02-04",-20.02,-45.04,0.00,0.00,330.00
"USC00502835","1968-02-05",-0.94,-29.92,0.00,0.00,330.00
"USC00502835","1968-02-06",39.92,-0.94,711.00,610.00,711.00
"USC00502835","1968-02-07",44.06,39.92,25.00,102.00,711.00
"USC00502835","1968-02-08",42.98,35.96,0.00,0.00,711.00
"USC00502835","1968-02-09",57.92,37.94,41.00,41.00,711.00
"USC00502835","1968-02-10",44.96,39.92,0.00,0.00,711.00
"USC00502835","1968-02-11",44.96,19.94,0.00,0.00,711.00
"USC00502835","1968-02-12",30.02,17.96,0.00,0.00,711.00
"USC00502835","1968-02-13",28.04,19.94,0.00,0.00,711.00
"USC00502835","1968-02-14",28.04,10.04,0.00,0.00,711.00
"USC00502835","1968-02-15",28.04,15.08,0.00,0.00,711.00
"USC00502835","1968-02-16",30.02,19.94,0.00,0.00,711.00
"USC00502835","1968-02-17",28.04,15.08,0.00,0.00,711.00
"USC00502835","1968-02-18",24.98,12.02,0.00,0.00,711.00
"USC00502835","1968-02-19",23.00,8.06,0.00,0.00,711.00
"USC00502835","1968-02-20",21.02,10.04,0.00,0.00,711.00
"USC00502835","1968-02-21",30.02,10.04,0.00,0.00,711.00
"USC00502835","1968-02-22",30.02,15.08,0.00,0.00,711.00
"USC00502835","1968-02-23",30.02,19.94,0.00,0.00,711.00
"USC00502835","1968-02-24",44.96,28.04,0.00,0.00,711.00
"USC00502835","1968-02-25",39.92,10.04,0.00,0.00,711.00
"USC00502835","1968-02-26",42.08,15.08,46.00,102.00,711.00
"USC00502835","1968-02-27",44.96,39.92,114.00,51.00,457.00
"USC00502835","1968-02-28",48.02,32.00,25.00,0.00,457.00
"USC00502835","1968-02-29",48.02,39.92,20.00,0.00,457.00
"USC00502835","1968-03-01",50.00,42.08,0.00,0.00,457.00
"USC00502835","1968-03-02",,,0.00,0.00,457.00
"USC00502835","1968-03-03",,,0.00,0.00,457.00
"USC00502835","1968-03-04",42.08,19.94,0.00,0.00,457.00
"USC00502835","1968-03-05",44.96,15.08,0.00,0.00,457.00
"USC00502835","1968-03-06",44.96,8.06,0.00,0.00,457.00
"USC00502835","1968-03-07",41.00,-0.04,0.00,0.00,457.00
"USC00502835","1968-03-08",39.92,1.94,0.00,0.00,457.00
"USC00502835","1968-03-09",,,0.00,0.00,457.00
"USC00502835","1968-03-10",,,0.00,0.00,457.00
"USC00502835","1968-03-11",44.96,-2.02,0.00,0.00,457.00
"USC00502835","1968-03-12",48.02,15.08,0.00,0.00,457.00
"USC00502835","1968-03-13",46.04,10.04,0.00,0.00,457.00
"USC00502835","1968-03-14",44.96,8.06,0.00,0.00,457.00
"USC00502835","1968-03-15",46.04,-0.04,0.00,0.00,457.00
"USC00502835","1968-03-16",,,0.00,0.00,457.00
"USC00502835","1968-03-17",,,0.00,0.00,457.00
"USC00502835","1968-03-18",44.96,-5.08,0.00,0.00,457.00
"USC00502835","1968-03-19",44.96,-7.96,0.00,0.00,457.00
"USC00502835","1968-03-20",42.98,1.94,0.00,0.00,457.00
"USC00502835","1968-03-21",24.98,-0.04,0.00,0.00,457.00
"USC00502835","1968-03-22",39.92,15.98,711.00,610.00,914.00
"USC00502835","1968-03-23",39.92,-5.08,0.00,0.00,914.00
"USC00502835","1968-03-24",39.92,-9.94,0.00,0.00,914.00
"USC00502835","1968-03-25",44.96,-14.98,0.00,0.00,864.00
"USC00502835","1968-03-26",42.08,-9.94,0.00,0.00,864.00
"USC00502835","1968-03-27",41.00,-0.04,0.00,0.00,864.00
"USC00502835","1968-03-28",44.06,1.94,0.00,0.00,813.00
"USC00502835","1968-03-29",44.96,15.08,0.00,0.00,813.00
"USC00502835","1968-03-30",,,0.00,0.00,
"USC00502835","1968-03-31",,,0.00,0.00,
"USC00502835","1968-04-01",35.06,19.94,0.00,0.00,813.00
"USC00502835","1968-04-02",32.00,17.96,0.00,0.00,813.00
"USC00502835","1968-04-03",39.92,23.00,0.00,0.00,813.00
"USC00502835","1968-04-04",39.92,24.98,0.00,0.00,813.00
"USC00502835","1968-04-05",44.06,19.94,0.00,0.00,813.00
"USC00502835","1968-04-06",,,0.00,0.00,813.00
"USC00502835","1968-04-07",,,0.00,0.00,813.00
"USC00502835","1968-04-08",44.96,28.04,0.00,0.00,813.00
"USC00502835","1968-04-09",44.06,28.04,0.00,0.00,813.00
"USC00502835","1968-04-10",48.02,30.02,0.00,0.00,813.00
"USC00502835","1968-04-11",,,0.00,0.00,813.00
"USC00502835","1968-04-12",,,0.00,0.00,813.00
"USC00502835","1968-04-13",,,0.00,0.00,813.00
"USC00502835","1968-04-14",32.00,10.04,0.00,0.00,813.00
"USC00502835","1968-04-15",30.02,-0.04,0.00,0.00,813.00
"USC00502835","1968-04-16",32.00,24.98,0.00,0.00,813.00
"USC00502835","1968-04-17",35.06,28.04,51.00,51.00,813.00
"USC00502835","1968-04-18",33.98,19.94,127.00,102.00,813.00
"USC00502835","1968-04-19",39.92,10.04,0.00,0.00,813.00
"USC00502835","1968-04-20",44.96,19.94,0.00,0.00,762.00
"USC00502835","1968-04-21",44.96,21.92,0.00,0.00,762.00
"USC00502835","1968-04-22",44.96,24.98,0.00,0.00,737.00
"USC00502835","1968-04-23",44.96,30.02,0.00,0.00,737.00
"USC00502835","1968-04-24",44.96,32.00,0.00,0.00,737.00
"USC00502835","1968-04-25",44.96,24.98,0.00,0.00,737.00
"USC00502835","1968-04-26",42.08,19.94,0.00,0.00,737.00
"USC00502835","1968-04-27",44.06,19.94,0.00,0.00,686.00
"USC00502835","1968-04-28",44.96,24.98,0.00,0.00,660.00
"USC00502835","1968-04-29",50.00,30.02,0.00,0.00,635.00
"USC00502835","1968-04-30",50.00,30.92,0.00,0.00,610.00
"USC00502835","1968-05-01",50.00,30.02,0.00,0.00,508.00
"USC00502835","1968-05-02",55.04,33.98,0.00,0.00,457.00
"USC00502835","1968-05-03",51.98,30.02,0.00,0.00,406.00
"USC00502835","1968-05-04",50.00,32.00,0.00,0.00,356.00
"USC00502835","1968-05-05",48.02,32.00,0.00,0.00,254.00
"USC00502835","1968-05-06",48.02,32.00,0.00,0.00,254.00
"USC00502835","1968-05-14",60.08,44.06,0.00,0.00,0.00
"USC00502835","1968-05-15",55.94,39.92,0.00,0.00,0.00
"USC00502835","1968-05-16",55.04,37.94,0.00,0.00,0.00
"USC00502835","1968-05-17",62.06,32.00,0.00,0.00,0.00
"USC00502835","1968-05-18",,,0.00,0.00,0.00
"USC00502835","1968-05-19",,,0.00,0.00,0.00
"USC00502835","1968-05-20",69.98,32.00,0.00,0.00,0.00
"USC00502835","1968-05-21",64.94,44.96,0.00,0.00,0.00
"USC00502835","1968-05-22",62.06,44.06,0.00,0.00,0.00
"USC00502835","1968-05-23",55.04,35.96,71.00,0.00,0.00
"USC00502835","1968-05-24",50.00,32.00,0.00,0.00,0.00
"USC00502835","1968-05-25",,,0.00,0.00,0.00
"USC00502835","1968-05-26",,,0.00,0.00,0.00
"USC00502835","1968-05-27",53.96,32.00,0.00,0.00,0.00
"USC00502835","1968-05-28",55.04,35.06,0.00,0.00,0.00
"USC00502835","1968-05-29",64.94,35.06,0.00,0.00,0.00
"USC00502835","1968-05-30",66.92,37.94,0.00,0.00,0.00
"USC00502835","1968-05-31",64.94,37.04,0.00,0.00,0.00
"USC00502835","1968-06-01",64.94,35.96,0.00,0.00,0.00
"USC00502835","1968-06-02",,,0.00,0.00,0.00
"USC00502835","1968-06-03",53.06,32.00,0.00,0.00,0.00
"USC00502835","1968-06-04",53.96,35.06,0.00,0.00,0.00
"USC00502835","1968-06-05",53.06,35.96,25.00,0.00,0.00
"USC00502835","1968-06-06",60.08,35.96,0.00,0.00,0.00
"USC00502835","1968-06-07",66.02,39.02,0.00,0.00,0.00
"USC00502835","1968-06-08",,,0.00,0.00,0.00
"USC00502835","1968-06-09",,,0.00,0.00,0.00
"USC00502835","1968-06-10",69.98,39.92,0.00,0.00,0.00
"USC00502835","1968-06-11",71.96,42.08,0.00,0.00,0.00
"USC00502835","1968-06-12",69.98,44.06,0.00,0.00,0.00
"USC00502835","1968-06-13",75.02,42.08,0.00,0.00,0.00
"USC00502835","1968-06-14",71.96,39.02,0.00,0.00,0.00
"USC00502835","1968-06-15",,,,0.00,0.00
"USC00502835","1968-06-16",,,,0.00,0.00
"USC00502835","1968-06-17",68.00,39.92,,0.00,0.00
"USC00502835","1968-06-18",71.96,48.02,,0.00,0.00
"USC00502835","1968-06-19",73.94,46.04,,0.00,0.00
"USC00502835","1968-06-20",75.02,50.00,,0.00,0.00
"USC00502835","1968-06-21",,,,0.00,0.00
"USC00502835","1968-06-22",,,,0.00,0.00
"USC00502835","1968-06-23",,,,0.00,0.00
"USC00502835","1968-06-24",69.98,48.02,,0.00,0.00
"USC00502835","1968-06-25",69.98,48.02,,0.00,0.00
"USC00502835","1968-06-26",73.94,50.00,,0.00,0.00
"USC00502835","1968-06-27",75.92,51.98,,0.00,0.00
"USC00502835","1968-06-28",80.06,50.00,,0.00,0.00
"USC00502835","1968-06-29",,,,0.00,0.00
"USC00502835","1968-06-30",,,,0.00,0.00
"USC00502835","1968-07-01",78.08,51.98,0.00,0.00,0.00
"USC00502835","1968-07-02",75.92,50.00,0.00,0.00,0.00
"USC00502835","1968-07-03",69.98,50.00,0.00,0.00,0.00
"USC00502835","1968-07-04",,,0.00,0.00,0.00
"USC00502835","1968-07-05",,,0.00,0.00,0.00
"USC00502835","1968-07-06",,,0.00,0.00,0.00
"USC00502835","1968-07-07",,,0.00,0.00,0.00
"USC00502835","1968-07-08",73.94,48.02,0.00,0.00,0.00
"USC00502835","1968-07-09",73.94,48.02,0.00,0.00,0.00
"USC00502835","1968-07-10",69.98,46.04,71.00,0.00,0.00
"USC00502835","1968-07-11",60.08,48.02,30.00,0.00,0.00
"USC00502835","1968-07-12",,,0.00,0.00,0.00
"USC00502835","1968-07-13",,,0.00,0.00,0.00
"USC00502835","1968-07-14",,,0.00,0.00,0.00
"USC00502835","1968-07-15",64.94,48.02,0.00,0.00,0.00
"USC00502835","1968-07-16",71.96,50.00,0.00,0.00,0.00
"USC00502835","1968-07-17",75.92,51.98,0.00,0.00,0.00
"USC00502835","1968-07-18",75.02,51.98,0.00,0.00,0.00
"USC00502835","1968-07-19",75.92,51.98,0.00,0.00,0.00
"USC00502835","1968-07-20",,,0.00,0.00,0.00
"USC00502835","1968-07-21",,,0.00,0.00,0.00
"USC00502835","1968-07-22",75.02,50.00,0.00,0.00,0.00
"USC00502835","1968-07-23",75.02,48.02,0.00,0.00,0.00
"USC00502835","1968-07-24",78.08,51.98,0.00,0.00,0.00
"USC00502835","1968-07-25",75.92,51.98,0.00,0.00,0.00
"USC00502835","1968-07-26",,,0.00,0.00,0.00
"USC00502835","1968-07-27",,,0.00,0.00,0.00
"USC00502835","1968-07-28",,,0.00,0.00,0.00
"USC00502835","1968-07-29",69.98,50.00,0.00,0.00,0.00
"USC00502835","1968-07-30",73.94,51.98,0.00,0.00,0.00
"USC00502835","1968-07-31",75.02,51.98,0.00,0.00,0.00
"USC00502835","1968-08-01",75.02,48.02,0.00,0.00,0.00
"USC00502835","1968-08-02",,,0.00,0.00,0.00
"USC00502835","1968-08-03",,,0.00,0.00,0.00
"USC00502835","1968-08-04",,,0.00,0.00,0.00
"USC00502835","1968-08-05",78.08,50.00,0.00,0.00,0.00
"USC00502835","1968-08-06",82.04,62.06,0.00,0.00,0.00
"USC00502835","1968-08-07",84.92,57.92,0.00,0.00,0.00
"USC00502835","1968-08-08",84.92,51.98,0.00,0.00,0.00
"USC00502835","1968-08-09",75.02,48.02,0.00,0.00,0.00
"USC00502835","1968-08-10",,,0.00,0.00,0.00
"USC00502835","1968-08-11",,,0.00,0.00,0.00
"USC00502835","1968-08-12",69.08,50.00,0.00,0.00,0.00
"USC00502835","1968-08-13",69.98,55.04,0.00,0.00,0.00
"USC00502835","1968-08-14",69.98,50.00,0.00,0.00,0.00
"USC00502835","1968-08-15",62.06,44.96,0.00,0.00,0.00
"USC00502835","1968-08-16",68.00,39.92,0.00,0.00,0.00
"USC00502835","1968-08-17",,,0.00,0.00,0.00
"USC00502835","1968-08-18",,,0.00,0.00,0.00
"USC00502835","1968-08-19",60.08,37.94,0.00,0.00,0.00
"USC00502835","1968-08-20",64.94,35.06,0.00,0.00,0.00
"USC00502835","1968-08-21",64.94,39.92,457.00,0.00,0.00
"USC00502835","1968-08-22",48.02,42.08,254.00,0.00,0.00
"USC00502835","1968-08-23",50.00,39.92,0.00,0.00,0.00
"USC00502835","1968-08-24",,,0.00,0.00,0.00
"USC00502835","1968-08-25",,,0.00,0.00,0.00
"USC00502835","1968-08-26",55.04,32.00,0.00,0.00,0.00
"USC00502835","1968-08-27",55.94,35.06,0.00,0.00,0.00
"USC00502835","1968-08-28",,,0.00,0.00,0.00
"USC00502835","1968-08-29",,,0.00,0.00,0.00
"USC00502835","1968-08-30",,,0.00,0.00,0.00
"USC00502835","1968-08-31",,,0.00,0.00,0.00
"USC00502835","1968-09-01",,,0.00,0.00,0.00
"USC00502835","1968-09-02",44.96,32.00,0.00,0.00,0.00
"USC00502835","1968-09-03",55.04,30.02,0.00,0.00,0.00
"USC00502835","1968-09-04",53.96,32.00,0.00,0.00,0.00
"USC00502835","1968-09-05",53.96,32.00,20.00,0.00,0.00
"USC00502835","1968-09-06",48.02,30.02,0.00,0.00,0.00
"USC00502835","1968-09-07",,,0.00,0.00,0.00
"USC00502835","1968-09-08",50.00,33.98,0.00,0.00,0.00
"USC00502835","1968-09-09",50.00,30.02,0.00,0.00,0.00
"USC00502835","1968-09-10",48.02,35.06,0.00,0.00,0.00
"USC00502835","1968-09-11",46.04,37.94,0.00,0.00,0.00
"USC00502835","1968-09-12",44.96,35.06,13.00,0.00,0.00
"USC00502835","1968-09-13",46.04,37.94,0.00,0.00,0.00
"USC00502835","1968-09-14",,,0.00,0.00,0.00
"USC00502835","1968-09-15",,,0.00,0.00,0.00
"USC00502835","1968-09-16",44.96,30.02,0.00,0.00,0.00
"USC00502835","1968-09-17",48.02,37.94,0.00,0.00,0.00
"USC00502835","1968-09-18",44.06,37.94,0.00,0.00,0.00
"USC00502835","1968-09-19",44.96,35.96,0.00,0.00,0.00
"USC00502835","1968-09-20",50.00,37.04,0.00,0.00,0.00
"USC00502835","1968-09-21",,,,0.00,0.00
"USC00502835","1968-09-22",,,,0.00,0.00
"USC00502835","1968-09-23",,,,0.00,0.00
"USC00502835","1968-09-24",,,,0.00,0.00
"USC00502835","1968-09-25",,,,0.00,0.00
"USC00502835","1968-09-26",,,,0.00,0.00
"USC00502835","1968-09-27",,,,0.00,0.00
"USC00502835","1968-09-28",,,,0.00,0.00
"USC00502835","1968-09-29",,,,0.00,0.00
"USC00502835","1968-09-30",,,,0.00,0.00
"USC00502835","1968-10-01",32.00,19.94,0.00,0.00,0.00
"USC00502835","1968-10-02",32.00,21.92,13.00,53.00,0.00